TimeCST,TemperatureF,Dew PointF,Humidity,Sea Level PressureIn,VisibilityMPH,Wind Direction,Wind SpeedMPH,Gust SpeedMPH,PrecipitationIn,Events,Conditions,WindDirDegrees,DateUTC
12:52 AM,32.0,27.0,82,30.17,10.0,SSW,12.7,-,N/A,,Clear,200,2012-12-31 06:52:00
1:52 AM,33.1,26.1,75,30.18,10.0,SSW,10.4,-,N/A,,Clear,210,2012-12-31 07:52:00
2:52 AM,34.0,25.0,70,30.18,10.0,SW,11.5,19.6,N/A,,Clear,220,2012-12-31 08:52:00
3:52 AM,34.0,24.1,67,30.16,10.0,SW,9.2,-,N/A,,Clear,220,2012-12-31 09:52:00
4:52 AM,34.0,24.1,67,30.15,10.0,SSW,9.2,-,N/A,,Overcast,210,2012-12-31 10:52:00
5:52 AM,35.1,24.1,64,30.14,10.0,SSW,10.4,17.3,N/A,,Overcast,210,2012-12-31 11:52:00
6:52 AM,35.1,24.1,64,30.15,10.0,SW,10.4,-,N/A,,Overcast,220,2012-12-31 12:52:00
7:52 AM,35.6,24.8,65,30.13,10.0,West,10.4,-,N/A,,Overcast,260,2012-12-31 13:52:00
8:37 AM,35.6,26.6,70,30.12,10.0,SW,9.2,-,0.00,,Overcast,230,2012-12-31 14:37:00
8:52 AM,34.0,30.0,85,30.16,3.0,SW,10.4,-,0.00,Snow,Light Snow,220,2012-12-31 14:52:00
8:59 AM,33.8,30.2,87,30.14,2.0,SW,9.2,-,0.00,Snow,Light Snow,220,2012-12-31 14:59:00
9:08 AM,33.8,32.0,93,30.15,1.2,SW,11.5,-,0.01,Snow,Light Snow,220,2012-12-31 15:08:00
9:15 AM,33.8,33.8,100,30.15,1.0,SW,11.5,19.6,0.01,Snow,Light Snow,230,2012-12-31 15:15:00
9:23 AM,33.8,33.8,100,30.15,0.8,SW,10.4,-,N/A,Snow,Light Snow,230,2012-12-31 15:23:00
9:37 AM,33.8,33.8,100,30.15,0.5,SW,9.2,-,0.03,Fog-Snow,Snow,230,2012-12-31 15:37:00
9:52 AM,33.1,33.1,100,30.17,0.5,SW,8.1,-,0.04,Fog-Snow,Snow,230,2012-12-31 15:52:00
10:33 AM,33.8,33.8,100,30.15,1.5,WSW,10.4,-,0.02,Snow,Light Snow,250,2012-12-31 16:33:00
10:52 AM,33.1,33.1,100,30.17,1.5,WSW,9.2,-,0.03,Snow,Light Snow,250,2012-12-31 16:52:00
11:01 AM,32.0,32.0,100,30.15,1.2,WSW,9.2,-,0.00,Snow,Light Snow,250,2012-12-31 17:01:00
11:20 AM,32.0,32.0,100,30.14,0.8,SW,6.9,-,0.01,Snow,Light Snow,230,2012-12-31 17:20:00
11:52 AM,32.0,32.0,100,30.14,0.8,WSW,5.8,-,0.04,Snow,Light Snow,240,2012-12-31 17:52:00
12:31 PM,32.0,32.0,100,30.11,0.8,WSW,10.4,-,0.03,Snow,Light Snow,250,2012-12-31 18:31:00
12:52 PM,32.0,32.0,100,30.12,0.5,WSW,9.2,-,0.06,Fog-Snow,Snow,250,2012-12-31 18:52:00
1:52 PM,32.0,32.0,100,30.11,0.8,WSW,6.9,-,0.06,Snow,Light Snow,250,2012-12-31 19:52:00
2:28 PM,32.0,32.0,100,30.09,5.0,West,6.9,-,0.01,Snow,Light Snow,260,2012-12-31 20:28:00
2:41 PM,32.0,32.0,100,30.10,5.0,West,6.9,-,0.01,Snow,Light Snow,280,2012-12-31 20:41:00
2:48 PM,32.0,32.0,100,30.10,4.0,West,5.8,-,0.01,Snow,Light Snow,270,2012-12-31 20:48:00
2:52 PM,32.0,32.0,100,30.12,3.0,West,5.8,-,0.01,Snow,Light Snow,270,2012-12-31 20:52:00
3:00 PM,32.0,32.0,100,30.10,3.0,West,4.6,-,0.00,Snow,Light Snow,260,2012-12-31 21:00:00
3:52 PM,32.0,32.0,100,30.11,5.0,West,4.6,-,0.00,Snow,Light Snow,270,2012-12-31 21:52:00
4:52 PM,32.0,30.2,93,30.09,6.0,NW,8.1,-,N/A,,Overcast,320,2012-12-31 22:52:00
5:28 PM,30.2,30.2,100,30.10,9.0,NNW,8.1,-,N/A,,Overcast,340,2012-12-31 23:28:00
5:52 PM,30.0,28.0,92,30.12,8.0,North,6.9,-,N/A,,Overcast,350,2012-12-31 23:52:00
6:01 PM,28.4,28.4,100,30.09,9.0,North,6.9,-,N/A,,Overcast,350,2013-01-01 00:01:00
6:50 PM,28.4,26.6,93,30.10,9.0,North,5.8,-,N/A,,Overcast,360,2013-01-01 00:50:00
6:52 PM,28.0,27.0,96,30.12,9.0,North,5.8,-,N/A,,Overcast,350,2013-01-01 00:52:00
7:19 PM,28.4,26.6,93,30.10,10.0,NNW,3.5,-,N/A,,Overcast,330,2013-01-01 01:19:00
7:33 PM,28.4,26.6,93,30.10,8.0,North,3.5,-,N/A,,Overcast,350,2013-01-01 01:33:00
7:52 PM,28.0,27.0,96,30.13,9.0,NNW,5.8,-,N/A,,Overcast,330,2013-01-01 01:52:00
8:03 PM,26.6,26.6,100,30.11,9.0,NNW,6.9,-,N/A,,Overcast,340,2013-01-01 02:03:00
8:15 PM,26.6,26.6,100,30.11,9.0,NNW,5.8,-,N/A,,Overcast,340,2013-01-01 02:15:00
8:52 PM,26.1,24.1,92,30.14,10.0,North,9.2,-,N/A,,Overcast,350,2013-01-01 02:52:00
9:16 PM,24.8,21.2,86,30.13,10.0,North,10.4,-,N/A,,Overcast,350,2013-01-01 03:16:00
9:26 PM,24.8,21.2,86,30.13,10.0,North,8.1,-,N/A,,Overcast,350,2013-01-01 03:26:00
9:50 PM,24.8,21.2,86,30.12,10.0,North,9.2,-,N/A,,Overcast,350,2013-01-01 03:50:00
9:52 PM,24.1,21.0,88,30.15,10.0,North,8.1,-,N/A,,Overcast,350,2013-01-01 03:52:00
10:37 PM,23.0,19.4,86,30.13,9.0,North,9.2,-,N/A,,Overcast,350,2013-01-01 04:37:00
10:52 PM,23.0,19.0,85,30.16,9.0,NNW,11.5,-,N/A,,Overcast,340,2013-01-01 04:52:00
11:52 PM,23.0,19.0,85,30.16,8.0,North,10.4,17.3,N/A,,Overcast,360,2013-01-01 05:52:00